Wind_Gust
36 33 31 32 30 27 25 24 25 22 19 17 19 19 17 16 17 15 12 15 15 15 15 15 15 15 14 13 13 12 11 10 10 11 12 12 11 11 12 14 15 12 16 18 17 10 12 9 10 11 10 11 11 11 14 11 12 12 13 11 12 11 10 12 18 13 4 7 14 17 16 19 16 15 17 13 13 14 9 12 15 14 14 13 15
32 34 32 29 30 28 25 24 25 19 17 16 18 16 14 16 15 13 14 14 15 16 16 14 14 14 13 13 13 12 12 12 10 11 12 11 9 8 11 11 12 12 15 15 17 7 8 10 8 8 10 11 8 9 12 11 11 10 11 13 12 11 11 9 5 5 6 6 13 20 18 17 17 14 19 18 16 13 13 12 12 14 16 14 14
32 32 32 30 28 27 27 25 20 20 19 18 17 16 14 14 14 17 15 13 13 15 15 14 14 14 13 13 13 12 13 12 12 12 12 11 10 8 9 10 10 12 11 11 12 8 7 8 9 8 11 11 8 9 9 9 10 11 12 11 10 15 20 11 9 6 11 8 15 18 16 17 19 20 18 18 19 19 15 14 15 14 13 14 12
28 26 26 27 28 28 27 21 19 17 19 18 17 15 14 12 13 15 14 12 14 12 14 14 14 14 14 13 13 12 12 12 12 13 13 12 11 10 8 7 8 10 11 11 14 14 11 10 6 8 10 10 9 10 9 7 10 13 11 8 7 13 12 11 9 11 6 16 11 17 17 18 13 15 16 15 18 15 13 14 13 12 11 13 13
29 27 25 26 27 30 25 22 18 18 18 17 17 16 14 12 13 15 13 13 13 12 12 13 15 14 16 14 13 13 13 13 13 11 10 10 11 10 8 7 7 9 9 10 10 12 12 11 10 9 8 12 11 11 8 8 7 6 6 8 9 10 10 12 12 8 10 15 14 10 13 13 13 16 16 16 12 11 12 15 12 13 15 16 13
29 28 27 27 27 29 27 23 20 19 19 17 18 18 16 13 14 13 14 13 13 13 14 13 15 15 14 14 15 14 13 14 13 12 11 10 11 10 9 8 9 9 10 10 9 9 12 12 12 10 11 11 11 12 12 9 8 9 9 10 9 12 9 10 10 9 12 16 17 16 10 16 13 15 17 16 17 13 10 10 11 17 17 12 11
27 26 26 27 27 28 27 23 22 20 19 18 18 17 16 15 14 13 12 13 13 13 13 14 14 16 14 14 15 15 15 13 13 12 11 11 9 10 12 11 11 8 8 10 10 10 11 11 10 9 10 12 12 10 7 7 12 11 10 10 10 13 11 7 5 8 12 14 12 15 16 8 11 14 11 11 13 15 16 12 9 5 12 16 12
29 29 26 27 26 28 26 24 22 21 18 18 19 17 17 19 17 15 14 14 14 15 15 15 13 14 15 15 15 15 14 12 12 12 11 10 12 12 12 12 11 9 7 8 10 12 12 10 8 6 7 7 10 10 12 12 12 9 7 8 9 8 7 6 7 8 12 13 13 12 9 11 7 6 11 11 10 7 10 13 15 12 11 9 11
29 26 26 29 25 24 24 23 21 20 20 19 19 17 16 14 12 11 11 11 11 13 13 14 14 13 14 13 12 11 11 11 11 11 11 11 13 14 13 12 12 11 10 10 11 12 11 11 9 9 11 12 12 11 10 10 12 11 5 7 7 8 7 8 7 7 6 8 8 5 8 9 9 13 13 14 17 20 15 10 13 13 11 10 8
27 25 26 25 23 24 24 21 21 20 19 19 18 17 17 15 14 11 11 12 13 12 13 14 15 16 16 13 10 12 13 11 12 17 12 15 13 13 12 12 12 13 13 12 11 12 13 12 14 16 14 14 14 13 13 13 12 10 9 7 8 10 8 8 8 6 8 8 7 10 10 11 12 14 16 13 10 8 12 11 13 8 11 10 6
27 25 27 24 23 23 23 22 23 21 18 18 17 18 18 16 13 12 11 11 11 11 13 13 13 14 15 14 14 14 12 13 18 19 19 18 15 13 13 11 11 12 11 11 11 15 16 14 12 14 15 13 15 16 15 15 16 17 16 14 12 12 10 11 10 9 7 6 5 6 9 10 9 10 12 14 12 17 17 14 13 13 13 13 9
28 25 26 26 24 24 22 23 21 20 19 19 18 17 16 14 14 12 12 11 10 12 12 13 13 11 12 13 15 14 13 13 21 20 19 18 13 15 12 12 11 12 11 12 13 15 14 11 9 9 10 13 14 16 15 15 16 15 15 15 14 14 11 11 8 10 9 9 11 9 8 12 11 9 8 10 13 12 11 12 11 13 12 8 8
29 25 25 25 24 23 22 23 22 23 22 21 19 16 17 16 15 13 13 11 10 13 17 14 13 11 14 15 15 14 14 12 20 20 20 20 18 14 13 12 12 12 12 13 12 13 12 12 11 9 11 15 14 13 14 14 13 16 16 14 13 12 12 12 7 6 9 9 9 11 12 7 12 12 10 11 10 13 8 10 7 9 10 13 7
30 27 26 28 27 24 24 23 23 21 19 18 18 18 18 18 14 12 12 12 13 13 14 15 13 14 15 16 16 14 14 11 19 19 19 19 17 13 13 13 12 13 13 13 12 13 13 13 13 11 9 9 10 12 12 11 10 10 11 11 11 12 12 12 12 11 9 10 10 12 10 10 10 8 11 11 14 14 14 9 9 12 13 13 10
29 28 29 29 25 25 23 21 20 20 21 20 18 17 17 15 14 13 13 14 14 15 17 14 15 15 14 16 16 15 14 12 17 18 17 17 17 11 12 11 11 11 12 13 13 13 12 13 12 13 11 10 11 12 13 11 11 13 13 13 14 12 11 11 11 9 11 12 11 10 9 11 11 11 12 14 13 11 13 14 14 16 17 12 13
29 29 29 28 26 26 24 22 21 19 20 19 18 17 16 16 16 13 12 11 9 10 12 12 15 14 15 18 17 15 11 12 16 17 16 15 14 12 12 13 12 12 13 12 11 12 12 13 13 14 12 12 12 15 12 14 13 14 14 14 11 12 12 8 8 9 11 11 11 12 11 12 12 15 13 12 12 12 17 16 15 15 15 13 12
30 29 29 32 29 26 25 22 21 20 20 19 18 17 17 15 12 12 13 12 13 13 14 13 12 16 17 17 18 15 12 11 14 16 15 16 11 12 12 12 12 13 13 12 12 11 11 12 12 12 12 12 13 15 14 14 14 15 14 13 13 13 10 9 12 13 14 15 15 14 14 17 18 18 19 18 15 14 17 16 11 12 16 13 8
30 30 30 30 29 28 24 22 22 21 20 20 18 16 14 12 13 13 16 15 13 14 15 13 13 15 17 17 18 18 13 11 14 14 14 14 12 14 13 13 12 13 12 10 10 11 12 15 12 14 15 11 12 14 15 15 14 15 15 17 13 12 8 7 9 11 10 12 13 15 16 17 18 19 19 19 19 15 20 17 12 12 14 13 11
31 31 31 29 29 23 22 20 20 21 20 18 18 17 16 16 13 12 12 12 15 16 14 14 14 13 16 17 16 19 15 11 11 14 14 14 13 12 15 15 15 13 14 12 9 10 12 14 16 15 14 12 15 14 14 14 14 13 15 16 15 12 9 8 12 11 7 9 8 11 13 12 14 15 16 18 18 14 14 15 12 16 15 13 14
28 28 29 28 26 25 23 20 18 20 20 17 17 18 17 16 14 13 11 13 18 16 13 15 15 14 16 16 15 16 16 11 11 14 14 14 12 14 14 16 16 14 13 15 13 9 12 13 13 17 18 15 13 14 15 16 15 12 14 16 16 13 10 8 7 10 9 11 9 10 12 12 11 11 11 13 14 11 12 12 13 17 16 12 11
27 26 29 28 26 28 21 21 20 17 20 22 21 18 17 17 17 17 22 23 18 15 14 14 15 15 15 14 15 12 15 16 12 13 14 13 12 12 13 14 15 16 14 14 14 14 12 12 11 12 17 15 14 15 17 19 15 16 15 16 16 16 11 11 10 10 11 10 10 10 11 10 11 11 11 11 11 10 11 11 11 14 17 16 14
25 24 27 27 26 24 23 18 19 19 18 20 20 19 16 20 20 17 14 14 15 14 13 14 15 14 12 13 13 13 14 19 17 12 14 14 13 11 13 13 16 17 14 15 15 13 13 12 12 11 16 16 15 15 17 18 18 16 18 20 21 19 17 12 11 10 10 10 10 10 10 10 10 10 10 10 10 10 11 10 10 10 12 15 17
24 24 26 28 28 25 23 21 19 19 18 18 18 17 15 16 14 14 14 13 14 15 15 14 15 14 12 12 12 13 14 15 17 15 14 15 14 13 13 12 11 16 17 16 17 16 14 15 13 14 18 18 15 14 15 17 14 18 21 20 19 18 14 13 12 11 10 9 10 10 9 10 10 10 10 10 8 8 9 9 9 10 9 9 9
22 23 23 25 23 25 22 23 21 17 18 18 17 18 16 14 13 13 14 15 15 16 14 15 15 15 15 13 12 13 12 14 13 16 15 15 13 12 12 13 13 11 14 16 18 18 17 16 15 17 18 18 17 15 15 14 19 19 19 19 18 14 14 14 11 11 11 11 10 10 9 7 9 9 8 9 10 9 10 9 9 9 12 13 13
22 21 20 23 24 22 24 21 20 20 17 18 17 17 15 15 15 11 13 14 14 16 15 18 17 15 15 15 12 12 13 16 15 14 16 13 12 11 12 14 12 12 15 16 15 16 18 21 21 20 19 19 19 17 14 16 21 21 20 18 15 13 13 12 12 12 11 10 10 9 9 11 11 10 10 9 8 9 11 10 10 12 14 16 15
21 22 20 20 21 22 23 20 18 18 17 15 15 16 17 15 15 12 11 13 15 16 17 16 16 17 16 15 14 13 12 12 16 14 10 10 9 10 15 17 17 18 16 19 20 24 23 20 22 22 19 16 17 15 14 14 15 17 18 15 12 13 11 12 13 13 11 11 11 12 12 11 11 10 8 9 10 11 11 10 12 10 12 15 18
23 22 23 22 21 24 23 19 18 18 15 15 14 12 10 13 14 13 12 12 13 13 14 14 16 16 16 15 14 14 13 12 12 15 14 12 12 11 15 18 16 17 19 20 18 20 22 18 15 13 14 17 16 12 13 13 15 14 12 10 10 10 11 12 14 13 11 11 11 10 10 9 9 10 9 9 9 6 7 11 12 9 11 12 17
25 23 22 22 22 23 24 22 24 21 19 19 18 16 15 13 14 12 10 9 13 13 15 15 19 18 17 16 15 14 13 13 14 15 15 15 13 11 11 12 12 14 17 15 15 16 20 14 18 17 17 16 14 12 12 12 12 11 9 6 6 7 10 9 7 12 11 12 12 11 11 11 11 10 12 12 11 10 10 9 9 8 10 14 16
23 22 22 25 22 20 21 20 21 23 22 19 20 18 15 12 14 14 12 9 8 8 17 13 14 12 18 19 18 15 13 15 17 10 12 11 19 16 14 13 13 13 13 18 20 14 14 15 15 16 15 15 14 14 13 12 9 8 8 7 7 8 9 11 11 10 11 12 12 11 13 14 12 11 12 11 8 8 8 12 9 13 10 12 13
23 21 20 22 21 22 20 19 17 19 22 21 24 23 19 21 17 14 12 12 19 20 12 10 9 14 15 11 12 16 18 16 14 21 18 16 15 16 13 14 16 19 18 19 18 20 14 15 12 14 15 14 15 13 13 12 10 8 8 7 8 8 10 11 12 12 14 14 13 13 13 13 11 10 12 10 8 8 9 9 8 8 11 11 14
22 20 20 19 19 20 19 18 16 17 16 18 20 22 21 23 21 21 16 18 22 23 22 19 19 15 15 14 10 17 14 14 21 20 20 19 15 16 19 21 23 24 21 21 15 16 15 15 12 11 12 13 14 14 12 12 9 9 7 7 8 11 9 12 13 15 16 15 16 13 13 13 12 10 12 11 10 9 11 10 12 13 13 14 14
24 21 20 19 20 18 18 17 17 17 15 14 16 18 20 21 20 18 21 23 24 25 24 22 20 18 16 14 11 14 16 17 16 16 15 16 15 16 18 20 21 20 16 16 16 12 13 15 13 12 12 13 12 10 12 11 10 10 10 10 9 9 14 12 12 16 14 15 13 10 11 12 11 11 12 12 14 13 12 13 13 14 13 13 12
20 20 18 20 20 18 17 17 16 17 16 15 14 14 17 18 20 17 17 20 27 28 26 23 21 20 19 20 18 14 13 15 18 17 17 18 19 18 19 19 17 16 16 14 14 12 11 12 12 12 13 13 12 11 11 11 10 11 12 12 11 9 12 11 12 15 13 14 14 12 11 12 13 13 12 12 14 11 13 12 11 11 12 15 11
19 15 17 19 19 17 16 17 17 15 14 13 13 15 15 15 15 14 16 13 18 19 22 24 21 18 21 19 18 18 18 18 19 20 21 20 20 21 18 16 14 12 11 14 14 11 11 12 12 12 13 11 11 11 10 10 11 13 11 12 12 12 11 9 15 15 14 14 14 11 12 12 12 14 12 12 12 12 12 11 11 12 11 12 12
21 20 21 15 18 18 17 17 15 15 15 15 15 16 15 13 12 13 14 17 18 16 13 17 19 19 18 14 16 18 19 19 19 18 20 20 20 19 17 19 14 12 11 8 10 10 12 13 13 12 12 12 10 11 12 11 13 13 13 12 12 13 13 14 14 13 14 14 13 12 12 11 13 11 12 12 12 12 11 11 10 11 12 10 11
20 19 19 19 19 17 16 15 14 16 16 15 15 15 14 15 16 16 15 15 17 17 14 14 13 11 18 17 18 19 20 20 19 17 17 18 19 18 17 12 13 11 10 9 10 10 11 12 13 12 11 11 10 10 10 12 12 14 14 16 14 14 14 12 11 12 12 15 13 13 11 12 12 12 11 12 12 12 10 10 9 9 10 10 8
19 18 17 17 17 17 16 17 16 17 12 14 14 15 15 15 14 15 15 16 15 14 15 11 13 17 15 15 15 15 17 17 16 15 14 12 10 10 12 13 12 12 11 11 12 12 13 12 12 12 12 12 12 13 13 13 14 15 12 15 14 14 12 13 14 12 13 13 12 13 13 11 10 10 14 13 11 11 10 10 10 10 10 10 9
18 17 15 16 17 17 17 16 16 13 15 15 14 14 15 15 15 15 15 15 13 14 14 13 9 14 16 12 8 10 16 13 16 14 12 11 11 11 11 12 12 13 13 12 12 13 13 12 11 13 13 14 14 13 14 14 15 16 15 13 12 12 11 15 11 13 11 12 12 13 12 10 10 11 13 14 12 11 10 9 10 11 9 10 10
20 19 19 17 13 16 15 15 15 16 15 15 14 14 14 14 14 15 16 15 14 14 12 13 13 13 11 7 9 6 13 14 13 11 10 11 11 10 10 10 10 11 12 12 11 11 12 12 11 13 13 14 14 14 16 15 14 14 13 13 12 11 12 11 11 11 12 12 11 11 12 11 12 11 12 13 11 10 10 9 8 10 11 9 9
18 16 14 14 16 17 16 14 14 14 13 15 14 13 14 14 15 14 15 16 16 14 14 13 11 9 6 6 6 10 15 13 11 10 10 10 10 10 12 11 11 12 12 12 12 13 14 13 13 14 14 14 14 14 14 15 13 12 13 11 12 11 11 12 12 13 12 11 11 11 12 12 12 11 10 10 10 10 11 9 8 9 8 8 5
16 16 12 12 13 17 15 15 14 14 14 13 13 13 14 14 14 13 14 15 15 14 13 12 11 9 9 12 10 10 14 13 12 11 11 12 11 12 12 12 12 12 12 12 13 13 13 14 13 14 14 14 14 14 13 13 13 14 12 11 12 12 12 11 12 12 12 12 11 11 11 11 11 12 11 8 8 10 10 10 10 10 9 8 7
16 15 15 14 14 15 15 14 14 13 12 11 13 13 13 13 13 13 13 14 13 13 14 13 12 11 13 17 13 12 14 13 12 12 11 11 12 11 10 11 12 11 11 11 12 13 13 13 13 13 14 13 13 13 13 13 13 13 12 12 13 12 13 11 11 11 11 11 10 11 10 9 9 10 11 9 11 10 10 10 10 10 9 9 9
14 14 16 14 15 15 15 15 14 15 14 15 14 9 12 14 14 13 13 13 13 13 14 13 11 10 11 10 13 10 12 12 8 12 11 11 11 10 11 11 10 10 11 11 11 12 12 13 12 11 12 13 13 14 14 13 13 13 12 12 12 13 12 10 10 10 10 11 10 9 10 11 12 11 10 10 10 11 10 10 9 10 9 9 9
14 14 14 14 16 16 15 15 15 14 13 12 12 12 12 13 13 13 14 13 13 12 13 14 12 12 11 11 11 12 11 11 11 12 12 11 12 11 11 11 11 11 11 11 10 11 13 13 11 10 10 11 11 10 11 11 13 14 14 13 12 11 11 11 11 11 12 12 12 12 11 10 10 11 11 10 11 12 10 10 9 9 9 9 6
16 16 15 16 13 15 15 13 12 13 12 12 13 12 10 12 12 12 13 14 13 13 13 12 12 12 11 11 11 12 12 11 10 11 11 12 12 13 12 12 11 12 12 11 10 11 12 12 12 11 10 10 10 11 12 12 11 12 13 16 15 13 12 12 11 10 12 13 13 12 11 12 11 11 11 10 10 11 10 8 9 7 7 5 6
16 15 13 14 13 12 11 12 9 11 11 12 12 13 12 13 12 12 12 12 12 12 11 10 10 11 12 13 13 13 13 13 13 12 12 12 12 12 11 12 12 12 11 10 10 11 11 12 12 13 13 13 14 14 13 12 13 12 11 11 12 12 10 10 10 11 12 13 13 12 12 11 10 11 11 11 10 10 8 7 6 6 6 5 4
14 15 15 14 14 12 12 11 11 10 12 12 12 12 12 13 13 11 10 12 12 11 12 13 13 12 11 11 12 12 11 13 12 12 12 12 11 12 12 12 12 12 10 11 10 11 11 12 12 13 13 12 13 14 14 12 13 12 11 12 12 12 11 10 11 11 12 12 13 13 12 12 11 10 12 11 9 9 8 9 9 8 8 7 5
14 15 14 11 11 12 12 11 11 9 12 12 12 11 11 12 11 11 10 11 12 12 12 12 12 11 11 11 11 12 11 12 12 11 12 11 11 12 12 12 11 11 12 12 11 11 12 12 13 14 15 15 14 14 13 13 12 12 11 11 11 12 13 11 12 12 11 11 11 12 13 13 11 11 9 10 9 8 9 7 7 6 7 6 7
14 14 13 12 11 10 9 10 10 12 12 11 12 12 10 11 11 10 11 11 11 11 11 11 11 11 12 12 12 11 11 11 12 13 12 12 11 11 11 12 11 12 13 12 12 13 13 13 13 14 14 13 13 14 13 12 12 11 12 10 13 15 15 14 12 14 13 14 12 12 11 12 11 10 10 9 8 7 8 6 6 6 5 5 4
11 11 11 11 10 11 10 9 9 11 9 10 11 10 9 10 10 10 10 11 10 11 11 11 11 12 13 13 12 12 12 12 12 13 13 13 12 12 12 13 12 12 12 12 12 12 12 12 13 13 13 12 12 12 12 12 11 12 10 13 15 16 15 16 15 14 14 11 13 12 13 12 10 9 9 9 8 8 8 6 6 6 4 4 4
11 12 12 12 12 11 10 9 9 9 10 10 12 12 10 10 10 11 11 11 11 11 11 11 11 11 10 11 11 13 13 13 12 12 12 12 12 12 13 13 13 12 13 13 12 12 12 12 12 12 12 12 12 12 11 11 10 11 13 16 16 15 15 14 15 12 14 10 11 12 13 13 11 11 8 9 7 8 8 6 5 5 6 5 4
Wind_Speed
13 12 12 12 12 13 13 10 9 8 9 9 9 8 8 8 8 8 5 6 6 7 7 7 7 7 7 7 7 7 7 6 6 6 7 7 6 5 5 6 6 5 3 3 3 3 3 4 4 2 2 4 3 4 3 4 5 5 4 4 5 5 5 4 4 4 1 2 5 5 7 11 7 7 10 8 7 7 4 3 4 6 6 6 6
12 11 11 12 14 14 12 9 9 7 8 8 9 9 8 8 8 6 7 7 6 8 8 7 7 7 7 7 7 7 7 7 6 7 7 7 6 3 4 5 5 4 4 4 4 4 4 4 5 4 4 4 4 5 4 4 5 5 5 6 6 6 5 4 2 2 2 2 4 5 7 10 9 8 11 11 9 7 7 6 4 5 6 5 5
12 10 10 11 13 10 8 7 7 8 9 8 9 9 8 8 7 8 7 6 6 7 7 7 8 8 7 8 8 7 8 7 6 6 7 7 6 4 5 5 5 5 5 4 4 4 3 4 5 4 3 3 3 3 3 3 4 5 5 5 5 4 4 3 3 2 4 2 4 7 6 6 7 10 8 8 9 9 9 7 7 5 4 5 5
10 10 8 6 4 4 7 6 5 7 9 8 9 8 8 7 7 8 8 7 8 7 7 8 8 8 8 8 8 8 7 6 7 8 8 7 6 6 5 5 5 5 5 5 4 5 5 3 4 3 2 3 2 1 1 2 3 3 3 3 4 3 4 5 3 3 2 5 4 7 8 8 3 7 8 6 6 7 7 5 4 5 5 5 6
12 10 10 10 7 5 6 5 7 8 9 8 9 8 8 8 8 9 8 8 8 7 7 8 8 9 9 8 8 8 7 7 8 7 6 6 6 6 5 4 4 5 5 6 6 6 4 5 4 3 3 3 0 0 2 1 3 4 3 1 1 2 2 1 3 2 5 5 6 3 4 4 4 6 7 8 4 4 2 4 5 5 4 4 3
7 7 4 3 10 10 8 6 8 9 9 8 9 8 8 8 9 8 9 8 7 8 8 7 8 9 9 9 9 8 8 8 8 8 6 6 5 6 5 5 4 5 5 4 5 5 5 4 3 3 3 3 3 3 3 3 2 3 3 2 3 5 5 4 5 4 6 7 8 6 4 6 4 3 6 7 8 6 4 3 3 3 5 4 3
7 8 7 3 1 7 11 10 8 9 8 7 7 7 7 7 8 8 8 8 8 8 8 9 8 10 9 9 9 9 9 8 8 7 6 6 6 4 3 3 3 3 3 4 3 3 3 3 3 3 3 4 4 3 4 3 3 3 3 5 4 6 6 4 3 5 6 6 4 4 7 2 5 6 5 6 7 8 8 6 3 3 3 5 5
15 16 14 13 13 11 10 9 9 8 7 7 7 7 7 6 7 7 7 8 8 9 9 9 8 7 9 9 9 9 9 8 7 7 7 6 6 5 6 6 5 3 3 3 3 2 2 2 4 3 3 3 4 4 5 5 3 4 1 3 3 5 5 4 4 5 7 6 6 6 5 5 4 2 4 5 5 2 4 4 7 6 6 4 4
17 15 14 16 12 7 9 8 8 8 8 8 8 7 7 6 6 6 7 7 7 8 8 9 7 6 6 3 5 7 7 6 6 6 6 5 6 7 7 7 7 6 4 3 3 4 4 3 3 3 4 6 8 7 6 4 5 5 3 3 4 4 4 4 5 5 3 4 4 3 4 4 4 6 7 6 9 10 7 5 6 4 4 4 2
16 14 12 10 9 7 9 8 8 9 9 9 8 8 7 7 6 7 7 7 6 6 8 8 8 8 9 8 5 5 5 4 7 12 10 8 7 6 5 5 6 6 7 6 4 4 4 4 4 10 11 11 11 11 11 9 7 5 4 4 5 5 5 5 4 4 5 5 4 6 5 6 6 7 7 7 5 4 6 6 6 4 5 2 0
13 13 13 11 10 9 9 9 10 10 9 8 8 8 8 7 7 7 7 6 7 5 5 5 6 3 5 7 7 6 5 4 12 14 14 13 9 7 7 6 5 5 4 6 6 5 5 5 4 7 9 9 10 13 12 12 12 13 12 9 6 5 6 6 3 2 3 4 3 4 5 6 6 5 7 7 6 9 9 8 7 7 7 7 5
13 10 11 10 10 11 10 11 11 10 10 9 9 8 7 7 7 7 6 6 4 6 7 8 6 7 6 5 7 6 5 8 14 14 15 15 12 8 7 7 6 5 5 6 5 6 6 5 4 4 5 8 8 10 10 11 13 12 12 11 10 9 5 5 4 2 2 4 4 3 5 7 6 5 4 5 7 4 4 6 6 7 7 4 4
11 11 11 13 10 8 10 11 11 11 10 9 8 8 8 8 8 7 8 5 4 7 8 6 8 7 8 8 7 6 6 9 14 15 14 14 14 11 7 7 7 6 6 6 6 7 7 6 5 4 5 11 8 8 9 9 10 12 11 11 11 10 10 10 6 3 5 5 4 1 2 3 4 4 4 5 4 7 5 5 3 3 3 6 4
11 12 13 13 9 7 7 9 10 10 10 9 9 8 9 9 8 7 6 6 6 7 8 8 7 9 9 9 8 7 8 8 13 14 14 13 13 9 6 7 7 7 7 6 6 7 8 7 7 5 4 5 6 7 7 7 6 6 6 6 5 7 9 10 9 8 5 4 4 2 1 1 2 1 1 4 7 7 7 5 5 6 5 5 2
10 11 12 10 9 9 8 8 10 10 10 10 9 9 9 8 7 7 7 8 8 7 8 7 6 7 9 9 9 8 7 11 12 14 13 13 12 8 5 5 6 6 6 6 7 7 7 7 7 7 6 5 5 8 8 7 7 6 6 6 5 5 6 6 6 4 5 5 6 5 3 2 0 0 2 3 4 4 6 7 7 8 8 4 5
11 10 10 10 11 10 9 8 10 10 10 10 10 10 9 9 9 6 5 5 4 4 6 7 9 6 6 10 10 8 6 9 10 12 13 12 10 5 6 6 7 6 6 5 5 6 7 7 7 7 6 5 7 10 10 8 8 8 7 5 5 6 7 5 6 7 5 5 4 4 3 3 3 2 3 5 7 7 9 9 8 7 8 6 5
11 11 11 11 11 11 10 8 9 11 11 11 10 10 9 8 6 6 7 7 8 7 7 5 6 8 7 7 10 8 7 8 9 9 10 10 7 5 6 6 7 7 6 5 6 6 6 7 7 6 6 5 8 12 13 11 8 8 7 6 5 6 6 5 9 11 11 11 10 9 7 8 10 10 10 9 9 9 9 9 6 7 8 7 2
12 12 12 12 12 11 11 10 10 11 12 12 10 9 7 6 8 6 8 8 7 7 9 7 7 6 10 10 11 10 8 7 9 7 8 11 8 7 7 7 7 6 5 4 5 6 7 12 9 7 6 6 10 12 13 11 8 8 8 7 6 6 4 3 5 5 7 9 9 10 10 11 11 11 10 9 7 7 11 9 7 6 7 7 6
12 13 13 10 8 10 11 10 10 11 12 11 10 10 9 9 7 6 6 6 8 8 7 8 8 6 7 9 12 12 9 6 7 7 8 10 7 6 7 7 8 6 6 3 2 6 6 8 11 9 7 8 13 12 12 10 9 8 8 8 7 6 5 4 6 6 4 5 5 6 7 8 6 6 6 10 9 6 4 9 7 9 8 6 7
12 10 8 8 9 10 10 10 9 11 12 10 9 9 7 7 7 6 5 4 8 7 8 8 9 6 6 8 8 8 9 6 6 7 8 9 8 7 7 8 8 7 6 6 5 3 5 5 7 11 11 12 12 12 12 13 9 7 7 7 7 6 4 4 3 5 4 4 4 4 4 4 5 5 4 6 6 5 7 7 7 8 8 7 3
8 8 8 7 7 8 7 8 10 9 10 11 9 8 8 8 7 6 6 7 7 7 7 7 8 7 6 6 7 6 8 9 7 9 10 9 9 10 7 8 8 8 7 6 6 7 6 6 5 8 12 12 12 13 13 14 12 9 7 8 7 7 7 5 4 6 6 5 4 4 5 5 5 5 5 6 5 5 5 4 5 7 9 7 6
8 8 8 7 6 6 7 5 5 7 9 9 9 9 7 8 8 8 6 8 8 8 7 7 7 7 5 5 6 6 7 8 9 9 11 8 7 10 8 8 10 9 7 5 5 6 7 7 6 8 11 12 12 13 14 14 13 8 7 9 11 14 8 6 6 5 6 5 5 5 4 5 5 5 5 5 5 5 5 5 4 4 3 5 8
8 8 8 8 7 6 6 7 8 9 10 10 9 9 8 8 7 7 8 7 9 9 9 8 8 8 6 5 5 5 5 4 6 7 9 8 8 9 11 9 11 9 9 7 7 6 4 5 6 9 10 11 11 12 13 14 11 7 11 12 14 13 9 7 6 6 5 5 5 5 5 4 5 5 5 5 5 5 6 5 4 5 5 5 5
8 7 6 5 6 6 6 7 7 8 9 9 8 9 9 8 7 7 8 8 8 9 8 8 8 8 8 6 5 5 4 4 3 7 6 10 10 10 11 12 11 7 8 8 6 7 7 6 7 10 9 9 10 10 12 12 8 12 13 14 15 11 7 8 6 6 5 5 5 5 4 3 4 4 4 4 5 5 6 5 6 5 7 7 8
7 8 5 4 4 5 4 6 7 9 7 5 7 8 9 9 8 5 6 7 8 8 7 7 8 8 8 8 7 5 4 4 3 3 6 9 10 9 8 10 8 10 7 5 7 7 8 10 11 10 9 9 9 9 10 11 14 15 15 15 12 6 7 7 6 6 6 5 5 5 4 5 4 3 4 5 5 5 6 6 6 7 8 10 9
8 8 8 7 7 6 6 8 10 8 4 3 5 8 10 8 8 6 6 6 7 8 8 7 8 9 9 7 6 5 5 5 5 3 3 5 6 7 7 9 10 8 8 8 9 10 12 11 11 9 9 9 8 6 6 7 12 15 15 12 7 7 6 7 6 6 6 6 5 6 5 2 2 3 3 4 6 7 6 5 7 6 7 8 9
7 6 7 7 6 7 8 9 9 7 2 3 4 4 4 7 8 8 7 7 6 7 8 8 7 6 7 7 7 6 7 6 6 5 4 5 5 5 6 4 7 10 8 7 9 8 8 8 6 6 5 7 9 10 10 10 10 8 7 5 5 6 6 6 7 6 6 6 5 4 4 3 2 4 5 5 5 3 4 6 7 6 7 6 8
10 9 7 6 6 8 11 16 15 9 7 7 7 6 6 5 6 5 4 4 7 6 5 6 7 8 8 8 7 6 7 6 6 7 6 6 5 4 4 5 6 6 7 6 7 7 8 7 8 6 6 6 6 6 6 6 7 7 5 4 4 4 5 5 4 4 3 3 4 5 4 4 4 3 3 5 4 3 3 5 5 5 6 6 6
12 11 9 9 9 10 10 9 10 11 12 12 11 10 8 6 5 5 5 3 1 4 6 6 6 6 8 9 9 8 7 8 9 5 7 6 7 7 6 6 6 5 8 14 10 7 7 7 7 6 6 7 7 7 7 7 5 4 4 3 4 4 5 5 5 5 5 6 6 6 5 5 5 4 6 6 4 3 4 6 4 7 3 5 6
14 11 10 10 8 9 8 8 8 9 9 12 15 13 14 15 10 6 5 9 5 1 1 3 3 5 6 2 1 4 5 6 10 12 11 8 5 7 9 10 10 10 11 11 9 9 7 7 6 6 6 6 6 6 6 6 5 5 5 5 5 4 5 5 6 5 6 7 7 6 6 5 5 4 5 5 4 4 5 4 3 4 6 5 6
12 11 10 10 9 9 8 8 7 8 8 9 9 11 9 12 16 16 13 11 13 15 14 12 12 10 9 4 1 6 9 12 14 12 11 9 8 11 13 14 16 17 17 13 6 6 6 7 6 5 5 5 6 6 6 6 5 4 4 4 2 4 4 5 6 6 7 7 7 6 5 5 5 4 6 5 5 4 4 4 5 6 7 7 7
12 11 10 9 8 8 8 9 9 9 8 7 7 8 10 10 10 14 15 16 17 17 15 13 12 11 9 8 6 4 7 11 13 11 10 10 11 12 14 15 15 14 11 12 8 6 6 7 6 5 5 5 5 5 5 5 4 4 4 4 3 3 6 6 6 8 8 8 7 5 5 6 6 6 6 6 6 5 4 4 5 7 6 6 6
12 12 10 9 9 10 9 9 8 8 8 8 6 6 8 9 10 7 8 13 18 19 18 16 14 12 11 11 8 6 8 10 13 13 13 13 14 14 14 15 13 12 12 7 5 5 3 4 5 4 6 7 6 5 5 5 5 5 5 5 4 3 4 4 5 8 8 8 8 6 6 6 6 7 5 6 6 4 4 6 5 6 7 7 5
11 7 8 10 9 9 8 8 8 7 7 7 6 8 8 8 8 7 8 7 9 12 17 19 16 14 16 14 12 13 12 11 11 12 13 15 16 16 14 10 11 9 8 7 8 6 5 6 5 5 5 4 4 5 4 4 5 5 4 4 4 4 5 4 8 8 8 8 8 6 6 6 7 6 4 4 4 5 5 5 6 6 5 6 7
10 12 13 11 9 9 8 8 8 8 7 7 8 9 8 7 7 6 7 8 8 7 5 9 14 15 11 10 12 13 13 12 12 13 15 15 15 14 14 11 7 4 4 3 5 6 6 6 6 6 6 6 6 6 6 4 4 5 5 5 5 5 6 8 8 8 8 8 7 6 5 6 6 6 6 6 5 5 5 5 4 6 7 6 6
10 10 10 11 10 9 8 8 7 7 7 8 8 8 8 7 8 8 7 7 8 8 7 7 6 9 14 14 13 14 14 13 12 13 13 15 16 15 8 5 6 5 5 5 5 5 6 6 7 6 6 5 5 6 6 6 7 6 5 6 6 6 8 7 6 6 5 7 6 5 5 5 5 6 5 5 5 6 5 5 5 4 5 5 4
9 9 8 8 9 8 8 8 8 9 9 9 8 8 8 8 8 7 7 8 8 7 7 5 6 8 10 8 10 12 13 13 12 12 10 8 7 4 6 7 6 6 5 5 5 6 6 5 5 6 6 6 6 7 8 7 7 7 6 7 7 8 7 7 7 5 5 5 4 4 6 5 4 5 7 7 4 5 5 5 5 5 5 5 5
8 8 7 8 9 9 9 9 9 10 9 8 7 7 7 7 7 7 8 7 7 7 6 5 5 6 7 5 4 5 9 11 13 10 8 7 4 5 5 5 6 6 6 5 5 6 6 5 6 6 6 6 7 7 7 7 7 8 8 7 7 7 7 6 5 6 5 5 5 4 5 5 4 5 5 7 6 6 5 5 6 6 5 5 5
10 14 15 14 10 8 8 8 8 8 8 8 7 7 8 8 7 7 7 7 7 6 5 6 6 5 5 4 4 3 7 6 5 4 4 4 4 4 5 5 5 6 6 5 5 5 5 5 5 6 6 6 7 7 8 7 7 8 7 8 7 6 5 5 5 5 6 5 4 4 5 5 4 4 5 7 6 5 5 5 4 6 6 5 5
9 8 9 12 10 9 8 8 8 8 7 8 7 7 7 7 7 6 6 7 6 6 5 6 5 3 2 2 2 4 6 5 4 4 4 4 4 4 4 5 5 5 6 6 6 6 6 6 6 7 7 7 7 7 7 8 7 7 6 6 6 5 5 5 6 6 6 5 5 5 5 5 5 5 5 5 5 5 6 5 4 4 5 5 4
8 8 8 8 8 8 8 8 7 7 7 7 6 6 7 7 7 6 6 7 6 6 5 5 4 3 3 5 6 5 6 6 5 4 4 5 5 5 5 5 5 6 5 6 6 6 6 6 6 7 7 7 7 7 7 7 7 6 5 5 5 6 5 5 5 6 6 5 5 5 5 5 5 6 6 5 5 6 6 6 5 5 5 4 4
7 7 7 7 8 7 8 8 7 8 7 7 7 7 7 7 6 6 7 7 6 6 6 5 4 4 7 11 9 9 7 5 5 5 5 5 5 5 5 5 5 5 5 5 6 6 6 6 6 6 7 7 7 7 7 7 7 6 6 6 6 6 6 5 5 5 6 5 5 5 5 5 5 6 6 6 6 6 6 6 5 5 5 5 4
7 7 7 7 7 7 7 7 6 7 7 7 6 6 6 7 7 6 6 6 6 5 6 6 5 5 6 7 9 9 6 6 5 5 5 5 5 5 5 5 5 5 4 4 5 6 6 7 7 7 7 7 7 8 7 7 6 6 6 7 7 7 6 5 5 5 5 6 6 5 6 6 6 6 6 6 6 6 6 6 5 5 5 4 4
7 7 7 7 7 7 6 6 7 6 6 7 7 6 6 6 6 6 6 6 5 5 5 6 5 5 5 6 7 7 6 6 5 5 5 5 6 6 5 5 5 5 5 5 5 6 7 7 6 6 5 5 5 4 5 6 7 7 7 7 7 7 6 6 6 6 7 7 6 6 6 6 6 6 6 6 6 7 6 5 5 5 5 4 4
6 7 6 6 6 7 7 6 6 7 7 7 6 6 5 6 6 5 5 5 5 5 5 5 5 5 5 5 5 6 6 5 5 5 5 5 5 5 4 5 5 6 6 6 6 6 7 6 6 6 6 5 5 5 5 4 5 7 7 8 8 7 7 7 7 6 7 8 7 7 6 6 6 6 6 6 6 6 6 5 5 5 3 2 4
6 5 6 6 6 6 6 5 5 6 6 6 6 6 5 5 5 6 6 5 5 5 5 5 5 5 5 5 5 6 5 5 5 5 5 5 6 5 4 5 5 5 6 6 6 6 6 7 7 7 6 6 6 5 5 5 5 4 4 4 6 7 6 6 6 6 7 7 8 7 7 6 6 6 7 6 6 6 5 4 3 3 4 3 2
6 6 6 5 5 5 5 5 5 5 5 6 6 6 6 5 5 5 5 6 6 6 5 5 5 5 5 5 5 5 5 5 5 5 5 4 5 5 5 5 6 6 6 6 5 6 6 6 6 7 6 6 6 6 6 5 5 5 4 6 6 7 6 6 6 6 6 6 7 7 7 7 7 6 7 6 5 6 5 5 5 4 4 4 3
6 5 5 5 5 5 5 5 6 6 6 6 6 6 6 6 5 5 5 5 5 5 5 5 5 5 5 5 5 5 5 5 5 5 5 5 5 5 5 5 6 6 6 6 5 5 6 6 6 6 6 6 6 6 5 5 5 5 5 6 6 7 8 8 6 6 6 6 6 7 8 7 6 6 6 6 6 5 6 4 4 4 5 4 4
6 5 5 5 5 5 5 5 5 5 6 6 6 6 6 6 5 5 5 5 5 5 6 6 5 5 5 5 5 5 5 5 5 5 5 5 5 5 5 6 6 6 6 6 5 6 6 6 5 6 6 6 6 6 6 5 6 5 5 5 7 11 11 11 8 7 8 7 6 6 6 6 6 6 5 5 5 4 5 4 4 4 2 2 2
4 4 6 5 5 5 4 5 4 5 5 5 6 6 6 6 6 6 6 5 5 5 5 5 6 6 6 6 5 5 5 6 6 5 5 6 5 5 6 6 6 6 6 6 5 5 5 5 6 5 5 5 5 5 5 5 5 6 5 6 10 11 11 12 11 11 9 6 7 6 7 6 6 5 5 5 5 5 5 4 3 3 3 2 1
5 6 5 6 6 5 5 5 5 5 4 5 5 5 5 5 5 5 5 5 5 5 5 5 6 6 5 5 5 6 5 5 5 5 6 6 5 6 6 6 7 6 6 6 6 5 5 5 5 5 5 5 5 5 4 5 4 5 8 10 11 12 12 11 9 9 11 8 6 7 7 7 7 7 5 5 4 5 6 4 4 3 3 3 2
Wind_Direction
177 176 174 182 187 197 199 189 172 168 176 185 187 191 192 190 191 192 174 184 179 180 184 185 182 179 175 177 175 177 178 178 181 174 182 197 209 199 159 157 176 208 199 197 203 204 219 230 240 242 177 198 207 220 223 192 171 209 192 182 195 194 182 178 187 243 357 96 150 147 147 139 147 161 155 170 182 189 180 190 172 180 187 190 199
179 174 177 183 192 198 195 181 169 165 177 179 184 191 194 193 192 180 183 187 178 185 187 186 182 180 177 180 180 180 179 178 177 172 183 191 200 191 170 163 174 189 191 189 191 212 215 235 252 248 227 223 206 204 207 180 170 177 186 187 204 200 188 147 181 172 183 61 87 108 147 162 142 173 165 172 189 177 177 182 187 192 189 188 190
171 169 177 188 200 196 183 175 168 173 179 176 186 192 193 193 184 182 186 185 189 185 184 181 182 179 180 182 180 180 180 174 172 180 184 180 182 184 173 171 174 181 192 196 188 193 208 227 245 248 251 245 233 218 196 187 175 189 189 170 181 174 130 125 116 95 126 78 124 139 161 169 163 175 188 183 182 177 177 182 184 191 197 186 190
153 157 173 200 201 167 179 185 166 174 181 180 186 189 188 187 183 184 184 183 188 190 181 181 176 178 180 180 179 175 175 171 171 183 177 174 178 186 189 180 172 180 186 185 186 190 211 222 236 214 213 230 281 294 239 174 165 153 130 128 130 154 151 114 113 146 142 127 172 172 169 161 168 170 166 165 162 174 190 182 169 187 187 186 190
157 158 155 159 174 179 198 191 176 182 183 180 184 181 183 180 184 185 180 186 186 178 183 177 175 177 179 177 174 170 172 167 175 180 179 179 181 184 193 192 173 176 183 187 186 191 199 215 213 197 195 211 135 75 17 55 56 64 70 56 133 170 123 141 119 116 144 157 160 189 158 161 164 150 152 150 157 169 134 170 187 187 192 191 170
61 43 12 196 169 167 193 199 188 182 179 178 179 179 178 180 182 185 179 181 178 178 175 177 176 179 179 174 168 171 171 174 179 177 181 181 182 191 193 192 180 178 187 187 180 185 195 201 196 178 167 165 141 128 118 104 85 88 111 108 97 100 104 129 184 162 153 173 164 147 179 166 132 132 168 160 154 157 144 137 138 164 170 170 178
132 143 165 164 315 200 181 191 181 176 176 173 173 177 180 183 177 178 179 172 172 177 176 175 179 180 176 168 168 171 174 177 177 179 181 185 183 161 135 128 135 160 178 173 169 169 153 154 165 167 160 152 145 139 111 95 85 79 114 127 132 119 119 109 110 129 148 158 179 165 160 163 146 160 174 172 166 166 162 149 157 179 170 180 178
174 176 178 179 184 191 195 175 166 166 164 170 175 181 182 182 184 174 170 174 175 175 175 174 180 173 170 171 172 174 175 178 181 182 184 169 144 143 144 139 133 125 122 109 109 114 131 158 145 139 138 142 136 129 116 114 101 94 61 97 99 104 111 115 101 123 149 158 167 159 174 161 141 88 120 131 137 130 180 161 176 181 194 182 177
179 183 182 179 177 167 159 159 157 157 161 167 174 181 186 187 183 178 178 183 178 176 173 171 167 167 139 169 181 169 163 176 179 170 149 142 145 146 151 145 141 136 126 112 106 111 97 86 94 113 108 98 99 106 107 118 124 100 57 88 82 94 83 67 76 87 90 136 130 136 144 160 168 141 152 169 181 190 177 158 188 175 142 148 200
177 174 180 180 161 155 144 150 155 155 163 170 177 181 185 187 184 182 187 184 181 171 170 173 168 170 163 166 173 147 164 167 169 153 147 147 143 137 131 136 141 148 144 135 120 101 89 79 88 94 92 96 100 97 95 88 80 92 126 105 101 78 81 78 66 94 121 136 160 162 157 174 180 175 170 190 178 124 150 170 172 125 111 100 90
179 175 171 172 173 164 152 152 155 163 166 167 172 180 186 184 188 186 186 183 177 166 129 131 159 163 164 165 145 139 146 148 144 136 137 136 135 139 140 142 139 139 143 138 129 112 93 91 92 97 97 92 98 100 95 88 84 81 74 74 80 120 116 94 88 103 123 143 165 155 171 179 199 183 184 172 169 172 177 173 147 139 154 151 166
174 162 161 170 174 170 167 157 159 163 162 168 172 180 181 184 188 187 181 184 154 128 162 158 138 152 174 148 132 132 130 143 139 137 141 143 142 141 143 142 145 145 147 135 130 121 114 104 92 101 113 120 118 101 89 90 92 86 80 74 70 58 73 136 142 94 130 135 132 175 177 190 183 177 176 157 172 143 141 154 154 158 155 153 155
165 158 172 180 175 171 167 163 161 161 165 165 168 170 178 186 188 184 189 169 137 179 159 143 158 147 149 140 124 125 125 155 141 142 143 146 144 142 148 147 144 149 144 141 136 131 124 116 108 103 117 119 112 112 112 99 91 90 82 74 60 57 48 34 23 135 150 122 131 158 194 173 165 212 200 177 146 143 135 122 104 122 141 126 156
170 167 174 179 152 158 171 166 161 159 159 162 164 169 178 188 186 181 173 158 179 169 158 164 161 150 147 138 136 140 140 162 147 145 150 152 150 148 157 154 151 150 148 143 143 138 136 134 129 125 125 122 124 118 114 109 101 79 64 54 48 33 34 35 42 57 79 128 137 128 352 140 202 233 251 147 139 150 142 138 139 128 109 109 119
171 176 180 164 150 157 171 171 157 153 156 162 165 173 178 178 174 174 174 176 172 172 164 164 154 143 145 139 133 140 152 156 155 152 155 158 161 155 155 142 135 135 134 146 148 144 144 140 140 143 148 143 143 132 119 116 101 89 75 59 54 43 39 24 12 16 64 76 89 102 78 45 131 200 120 139 136 137 143 144 138 116 112 110 64
175 181 171 170 164 165 168 173 158 153 156 162 168 173 176 176 172 167 160 140 146 133 108 134 141 153 153 132 127 137 143 159 160 158 161 165 164 155 156 142 132 130 140 155 150 144 139 141 141 147 153 153 152 131 123 119 105 97 87 76 63 57 48 33 33 46 61 76 80 80 52 28 26 33 63 107 103 101 88 90 92 101 101 76 68
177 180 178 179 174 167 160 167 166 156 157 165 173 171 169 171 167 166 157 159 153 153 142 126 132 135 139 129 128 143 151 167 160 167 168 169 160 161 153 138 132 137 155 163 159 147 147 148 147 150 151 159 153 132 127 115 109 105 101 88 74 72 51 36 49 61 70 74 76 76 76 74 68 64 65 79 113 118 111 105 123 129 112 107 71
179 182 182 183 177 163 160 166 169 161 159 169 170 164 159 162 171 175 167 164 153 128 138 135 124 153 143 144 149 149 157 153 158 166 194 192 180 163 158 143 135 138 150 166 160 154 158 159 152 151 155 164 152 136 131 120 116 121 116 110 100 93 82 80 77 65 77 92 94 89 77 69 70 66 66 79 101 138 136 148 167 117 109 124 132
179 185 186 177 161 155 161 167 172 164 160 162 161 159 163 168 170 175 177 163 131 137 131 127 141 158 151 144 148 145 154 149 154 174 213 212 184 162 152 139 132 141 142 141 150 156 156 158 157 157 163 165 151 143 141 130 131 136 135 124 126 133 166 149 123 108 86 70 47 58 47 45 53 66 64 64 73 60 98 127 134 120 127 129 127
184 180 159 158 164 162 163 167 174 168 155 148 152 156 151 146 161 167 173 122 123 135 132 140 145 148 139 139 146 146 139 129 157 177 210 219 193 161 149 140 144 151 154 153 140 144 155 156 163 159 156 157 152 150 150 142 140 142 134 137 139 163 179 138 110 102 89 91 77 64 67 47 46 49 55 66 56 71 101 123 132 128 133 141 132
159 162 154 155 161 160 156 166 170 161 146 145 146 146 153 155 153 155 144 122 128 132 135 136 130 134 134 134 134 137 142 136 159 179 200 215 175 155 151 145 145 148 156 154 151 151 152 159 160 165 159 161 154 158 157 153 148 148 152 153 174 155 138 132 125 115 113 107 95 80 76 62 51 52 60 67 72 78 87 93 118 129 130 127 114
149 143 142 152 151 144 150 142 143 134 120 127 146 153 151 148 153 150 142 139 136 133 133 132 129 128 123 126 134 132 159 157 145 183 201 194 151 150 140 150 153 145 145 142 144 151 161 164 167 177 168 162 158 157 160 160 155 147 166 150 128 134 145 132 124 122 114 109 107 97 88 91 85 82 72 66 72 79 83 83 74 72 73 123 137
137 138 142 148 151 150 131 139 144 141 136 138 148 146 140 139 145 146 140 136 132 134 139 139 136 132 122 115 100 107 108 141 168 176 198 130 116 124 136 141 165 151 146 157 168 157 150 152 157 162 166 161 164 160 159 162 157 157 149 138 141 144 135 131 129 122 120 119 110 112 112 110 109 108 103 90 73 75 75 77 78 79 77 65 61
128 129 129 135 150 141 131 145 152 121 114 131 150 140 137 140 144 149 146 139 138 139 143 141 135 132 133 121 116 98 120 119 184 216 160 118 107 115 136 155 166 161 151 153 152 148 152 163 159 159 161 160 161 162 160 161 156 149 147 146 145 150 141 134 132 133 128 121 117 125 140 153 121 123 125 124 103 94 88 82 77 79 78 63 54
105 110 122 128 122 118 129 135 117 88 98 132 148 141 135 141 139 152 142 139 142 143 144 142 140 144 143 147 135 117 113 124 183 189 140 119 112 119 135 153 172 138 128 140 148 162 155 144 140 148 151 148 148 152 156 153 146 151 147 145 149 146 147 138 134 133 133 144 153 151 160 174 171 145 135 116 109 92 84 70 72 77 81 77 68
127 132 133 135 137 149 148 101 87 94 109 174 159 142 144 146 143 150 142 144 146 144 147 143 152 158 157 146 124 127 140 170 179 158 153 120 99 108 141 165 170 163 133 144 143 130 133 131 129 129 134 138 131 135 130 141 147 141 142 152 156 152 145 137 136 141 151 157 157 164 166 155 89 110 113 106 106 115 114 103 98 79 84 86 72
93 86 114 128 119 122 110 90 84 87 144 131 101 95 116 138 143 146 154 152 151 150 153 158 156 146 139 135 141 147 162 173 164 162 167 140 135 134 112 114 120 106 94 103 104 110 111 111 118 118 111 134 124 123 123 124 119 126 143 151 150 160 151 150 156 157 158 159 162 138 124 123 97 87 98 104 101 87 113 120 112 115 99 97 96
107 104 91 84 91 95 92 97 96 90 65 59 57 54 46 48 82 88 103 133 152 152 145 151 153 155 149 144 152 153 166 170 169 173 178 165 155 134 127 132 139 136 119 114 112 113 114 102 96 88 110 107 103 98 99 106 118 120 121 122 133 149 166 157 120 140 131 118 106 110 107 105 102 105 86 83 94 83 118 116 124 124 125 117 89
91 86 86 89 83 84 84 96 122 111 93 73 62 51 21 32 65 77 51 5 328 124 144 150 160 159 156 161 158 164 167 186 197 180 165 170 158 146 146 147 138 127 139 132 114 106 110 113 120 129 142 133 130 127 118 113 109 99 98 79 75 101 136 142 152 155 134 130 132 132 128 119 111 104 103 79 61 66 85 102 107 122 82 78 106
91 91 96 94 93 96 105 111 99 90 98 98 89 69 57 57 46 54 20 8 46 318 52 140 140 127 113 72 139 159 185 195 150 155 157 158 165 143 134 130 127 120 121 119 124 128 132 134 142 146 144 135 127 123 132 127 103 68 47 32 58 90 127 139 138 142 143 130 128 123 128 122 116 112 96 97 70 45 23 76 98 109 107 112 105
110 113 116 120 133 134 123 107 100 100 99 100 96 98 84 51 49 47 47 50 53 56 61 69 88 110 127 134 75 61 114 130 150 154 148 142 131 124 121 119 120 127 129 116 94 124 136 143 148 145 141 128 130 136 126 120 123 114 90 81 66 104 115 122 128 127 122 115 109 110 110 108 108 98 96 88 89 63 57 46 86 83 109 122 113
121 117 114 115 117 114 110 108 108 102 97 94 100 108 100 91 56 40 48 55 55 57 56 59 70 87 107 126 123 47 81 127 142 142 125 113 112 113 114 120 127 131 133 120 120 143 151 147 147 130 119 117 122 127 129 126 112 93 96 93 104 127 130 127 135 124 118 109 107 104 100 94 93 91 94 96 87 76 78 73 85 99 87 82 101
108 117 118 114 112 104 102 100 98 101 107 104 98 99 103 106 98 83 46 57 63 58 50 47 50 58 62 60 61 102 114 129 130 125 120 117 114 113 116 119 120 113 98 86 116 115 100 95 100 121 135 146 160 153 150 147 135 142 138 140 134 107 91 99 105 95 98 108 109 105 107 107 103 91 85 90 101 102 93 96 89 95 109 105 95
106 106 114 112 106 103 101 102 100 96 90 91 99 99 94 92 99 107 101 75 48 42 41 37 36 52 55 58 72 80 89 101 107 113 117 120 121 121 117 109 98 97 112 128 127 135 133 138 146 151 161 144 135 140 137 124 131 134 118 109 107 98 93 100 95 97 102 103 106 112 112 114 117 111 104 89 86 101 98 101 114 113 108 122 125
92 92 93 101 101 97 95 95 94 95 97 100 95 90 87 85 87 77 84 94 84 64 37 29 32 39 56 57 66 80 89 95 104 113 114 118 119 118 109 106 106 93 77 92 119 134 136 137 148 153 152 150 148 135 130 129 118 111 111 110 101 96 94 88 95 103 107 110 113 129 137 124 119 121 133 126 112 97 102 100 96 120 129 126 125
90 94 92 90 93 95 97 98 102 102 97 82 79 84 86 93 92 93 89 87 92 95 71 53 58 50 60 64 70 79 83 90 99 108 119 124 131 123 110 113 115 120 119 131 136 140 144 149 147 150 148 140 130 118 112 117 117 118 123 121 114 102 98 99 104 106 114 119 126 121 110 107 122 118 98 85 101 115 111 108 107 102 113 119 121
85 83 82 86 90 92 86 85 82 86 87 92 96 91 93 93 94 94 88 92 91 85 88 97 88 68 55 52 66 77 84 90 90 92 97 101 91 80 123 137 135 126 126 132 129 133 134 143 138 134 136 134 131 131 130 131 130 121 111 105 110 109 113 120 123 127 121 115 117 122 124 126 126 127 120 112 102 102 109 111 104 99 105 115 110
63 74 86 90 94 87 87 84 85 85 84 86 86 95 94 88 92 96 100 96 97 102 94 75 70 94 101 88 76 97 98 90 84 70 63 62 63 88 95 106 113 125 122 122 131 135 134 134 136 133 129 127 127 129 124 120 120 120 117 112 109 117 121 121 121 107 102 106 113 113 110 110 119 121 114 120 128 123 118 114 113 104 96 101 105
62 58 65 69 72 88 96 95 88 91 87 83 84 92 96 99 94 95 102 105 99 94 95 94 90 95 103 121 122 127 100 84 87 98 78 65 70 90 105 108 112 112 114 112 115 115 118 114 106 104 108 111 113 117 122 123 121 120 122 119 117 118 117 115 110 110 111 114 114 116 114 113 106 108 117 118 117 123 119 110 110 114 113 105 110
64 60 55 68 75 68 84 88 94 90 95 102 99 100 99 96 100 102 103 103 101 99 101 102 100 89 82 79 91 101 101 104 105 109 100 81 74 68 87 98 102 113 122 121 116 118 114 115 118 116 114 115 117 118 120 122 122 120 117 119 125 124 124 121 122 122 123 128 126 125 118 117 112 107 94 102 122 123 117 110 106 105 112 116 98
70 65 63 58 72 82 74 78 83 90 95 94 101 99 98 100 100 101 99 96 98 94 87 87 91 83 72 86 77 91 111 112 102 88 96 104 97 91 90 101 112 109 106 115 119 123 124 127 128 128 128 129 129 126 123 119 119 115 115 118 115 119 118 118 125 125 129 125 124 117 115 117 122 116 109 106 103 99 97 101 94 89 87 95 104
66 69 69 66 64 76 82 80 82 82 86 89 92 101 107 107 106 105 105 105 103 104 103 91 86 90 91 92 93 95 94 94 94 96 91 86 87 86 87 89 97 113 122 126 129 126 122 117 118 119 121 121 121 120 118 119 124 129 132 130 128 127 127 134 134 132 128 121 115 113 111 108 102 99 111 117 109 106 96 88 93 91 86 89 88
65 67 68 66 65 68 78 83 83 86 88 88 90 87 94 101 106 106 103 102 104 110 115 110 101 88 79 77 83 79 81 81 82 84 83 87 87 86 86 90 88 90 94 98 105 115 117 117 117 122 125 132 134 140 139 143 140 134 128 126 129 129 129 127 121 117 111 108 108 108 110 109 108 109 110 107 107 101 103 106 99 96 102 101 103
75 72 71 71 73 71 65 76 78 77 80 84 85 90 101 103 101 104 110 112 111 110 105 104 104 100 99 86 84 82 85 86 89 92 94 90 89 94 96 95 94 91 92 92 100 109 116 114 111 103 95 97 98 101 116 135 140 132 133 131 132 134 137 139 139 139 133 125 123 119 115 112 113 113 113 116 112 107 104 100 105 112 111 116 113
74 76 79 79 77 84 80 79 91 96 100 97 98 93 93 102 106 106 105 108 106 99 95 101 107 106 104 97 93 94 92 93 94 92 88 94 96 96 97 93 96 102 103 100 102 103 104 104 104 102 98 89 90 101 108 110 121 134 143 141 141 147 159 162 159 149 135 128 127 123 123 121 121 118 119 120 120 120 122 133 134 125 111 112 95
75 76 78 83 83 85 90 92 91 97 101 107 109 106 97 93 100 109 112 109 103 102 96 86 82 84 88 92 91 94 97 95 90 92 94 91 91 85 84 91 89 90 96 104 104 105 108 114 114 114 113 112 107 102 98 97 96 99 107 121 136 141 140 132 129 127 131 131 131 129 126 118 120 125 128 126 123 118 124 125 118 129 142 133 122
79 83 83 85 86 89 91 98 99 99 101 100 107 110 113 110 112 107 103 110 115 114 110 109 106 106 105 103 103 102 100 101 106 102 103 104 101 100 96 95 94 89 85 87 98 107 110 108 110 114 115 116 110 103 98 94 94 95 102 110 111 114 120 126 129 130 129 128 128 126 128 127 128 123 121 117 115 123 127 141 147 142 135 129 137
89 85 86 89 91 94 93 96 99 100 101 104 109 111 113 115 112 115 120 117 116 115 113 110 108 111 109 106 106 108 108 104 102 102 100 95 100 101 102 102 103 103 97 89 88 96 102 108 111 112 112 110 107 105 100 100 98 100 97 103 112 122 128 126 118 118 120 123 122 125 127 125 126 126 127 125 130 130 122 131 127 128 133 137 143
100 103 95 89 92 101 107 104 107 109 114 114 111 110 113 109 107 108 108 113 113 119 119 121 118 116 116 124 124 120 118 116 114 112 106 106 102 102 103 105 105 105 102 97 94 95 98 99 101 104 108 109 112 114 113 108 108 107 110 110 121 126 126 124 121 123 123 116 114 112 111 116 121 123 123 120 127 127 133 146 144 145 140 138 138
106 105 109 106 106 104 102 105 108 113 114 114 114 113 109 115 119 122 122 121 117 116 124 127 133 136 136 135 134 134 133 132 134 126 121 113 112 111 107 104 101 100 102 104 98 96 97 100 103 102 104 107 108 109 113 115 117 118 118 123 127 123 120 119 121 127 124 122 122 123 122 118 116 117 120 126 128 123 124 136 142 141 149 158 159
96 100 109 116 121 122 118 115 116 120 120 119 119 122 121 121 121 124 125 127 129 133 133 138 139 137 137 137 140 139 140 136 133 131 127 127 125 119 115 111 109 105 103 105 101 97 100 105 106 109 110 111 109 110 113 118 119 120 124 126 123 123 123 123 123 125 122 121 120 121 120 124 121 120 122 126 127 124 136 135 130 142 167 175 164